Location: D�nning
(49.2479°N, 12.8491°E)
Time: 06:07:38
(UTC+00:00)

Cosmos 2082 Rocket - Pass Details

Date: 18 September 2020
Orbit: 834 x 853 km, 71.0° (Epoch: 22 October)

Event Time Altitude Azimuth Distance (km) Brightness Sun altitude
Rises 20:39:23 0° 332° (NNW) 3,393 6.4 -30.7°
Reaches altitude 10° 20:41:52 10° 336° (NNW) 2,456 5.4 -31.0°
Enters shadow 20:46:13 50° 4° (N) 1,053 2.8 -31.4°
